This is the latest recevied weather packets stored in our database for station/object SQ1OHF-10. If no packets are shown the sender has not sent any weather packets the latest 10 day(s).
| Time | Temp. | Humidity | Pressure | Rain* | Wind** | Luminosity | Snow |
|---|---|---|---|---|---|---|---|
| 1788702492 | 22.22° C | 48% | 1020.2 hPa | - | - | - | - |
| 1788698895 | 22.22° C | 47% | 1020.2 hPa | - | - | - | - |
| 1788695299 | 22.22° C | 46% | 1020.1 hPa | - | - | - | - |
| 1788691703 | 22.22° C | 46% | 1019.7 hPa | - | - | - | - |
| 1788688105 | 22.22° C | 47% | 1019.6 hPa | - | - | - | - |
| 1788684509 | 22.78° C | 47% | 1019.2 hPa | - | - | - | - |
| 1788680914 | 22.78° C | 49% | 1018.5 hPa | - | - | - | - |
| 1788677317 | 22.78° C | 54% | 1017.7 hPa | - | - | - | - |
| 1788673719 | 21.67° C | 54% | 1017.2 hPa | - | - | - | - |
| 1788638287 | 22.78° C | 53% | 1011.9 hPa | - | - | - | - |
| 1788634691 | 22.22° C | 53% | 1011.4 hPa | - | - | - | - |
| 1788631095 | 22.22° C | 53% | 1010.8 hPa | - | - | - | - |
| 1788627498 | 22.22° C | 57% | 1010 hPa | - | - | - | - |
| 1788623901 | 22.22° C | 53% | 1009.3 hPa | - | - | - | - |
| 1788620304 | 22.78° C | 55% | 1009.4 hPa | - | - | - | - |
| 1788616710 | 22.78° C | 55% | 1008.5 hPa | - | - | - | - |
| 1788535492 | 23.33° C | 60% | 998.6 hPa | - | - | - | - |
| 1788531897 | 22.78° C | 61% | 998.6 hPa | - | - | - | - |
| 1788528301 | 23.33° C | 60% | 996.9 hPa | - | - | - | - |
| 1788524704 | 23.33° C | 60% | 998 hPa | - | - | - | - |
| 1788521106 | 23.33° C | 61% | 999.1 hPa | - | - | - | - |
| 1788519845 | 22.78° C | 59% | 999.7 hPa | - | - | - | - |
| 1788516247 | 22.78° C | 57% | 1001.9 hPa | - | - | - | - |
| 1788407423 | 23.33° C | 58% | 1012.4 hPa | - | - | - | - |
| 1788403829 | 23.33° C | 57% | 1012.9 hPa | - | - | - | - |
* Rain since midnight (hover to see other rain measurements)
** Current wind speed in m/s (hover to see current wind gust speed)